Wind_Speed
64 65 67 68 70 71 72 73 73 73 73 73 73 73 72 71 70 68 67 65 64 63 62 61 60 60 59 58 58 57 57 57 56 56 55 54 54 55 56 56 56 56
65 66 68 69 70 71 71 71 72 72 72 72 71 71 70 69 68 66 65 63 62 61 60 59 59 59 59 58 58 57 57 56 56 56 55 55 54 54 54 55 55 55
65 67 68 69 69 69 70 70 70 70 70 69 68 68 67 66 65 64 63 62 61 60 59 59 59 58 58 58 58 57 57 56 56 56 55 55 54 54 54 54 54 54
66 68 68 68 68 68 68 68 68 67 66 65 65 64 64 63 63 62 61 61 61 60 60 59 59 58 58 57 57 57 57 56 56 56 55 55 54 54 54 54 54 54
67 67 67 67 67 67 67 66 66 65 64 63 62 62 62 62 62 61 61 61 60 60 59 59 58 58 57 57 56 56 56 56 55 55 55 55 54 54 54 54 54 54
66 66 66 66 66 66 65 64 63 63 62 61 61 61 61 61 61 61 61 61 60 60 59 58 58 57 57 56 56 55 55 55 55 55 55 55 54 54 54 54 54 54
65 65 65 65 64 63 63 62 61 61 60 60 60 60 60 60 60 60 60 60 59 59 58 58 58 57 56 56 56 55 55 54 54 54 54 54 54 54 54 55 55 54
63 63 63 62 61 60 60 59 59 59 59 59 59 59 59 59 59 59 59 58 58 58 58 58 58 57 57 56 56 55 54 54 54 54 53 53 53 53 53 54 54 54
61 61 60 59 58 58 58 58 58 58 58 58 58 57 57 57 57 57 57 58 58 58 59 59 59 58 58 57 57 56 55 54 54 54 53 53 52 52 52 52 53 53
59 58 57 57 57 57 56 56 56 56 56 55 55 55 55 55 56 57 58 58 59 59 59 59 59 59 58 58 57 57 56 55 54 53 53 53 52 52 51 51 52 52
56 56 55 55 55 55 54 54 54 54 53 53 53 53 54 55 57 58 58 58 58 58 58 58 57 57 56 56 55 55 55 54 54 53 52 52 51 51 51 51 51 51
54 54 54 54 53 53 52 52 52 52 52 52 53 54 55 56 56 56 56 56 56 56 56 56 55 55 55 55 54 54 53 53 53 52 51 51 50 50 50 50 50 50
53 53 53 52 51 51 51 51 50 50 51 53 54 55 54 54 53 53 53 54 54 54 54 54 54 54 54 54 53 53 53 52 52 51 50 50 50 49 49 49 48 48
52 52 51 50 50 50 49 49 49 51 52 53 53 52 51 51 51 50 51 51 51 52 52 52 52 53 53 53 53 52 52 52 51 50 50 49 49 48 48 47 46 45
51 50 49 49 48 48 48 48 50 51 51 51 50 49 48 48 47 48 48 48 49 49 49 50 50 51 52 52 52 52 52 52 51 51 50 49 49 48 47 46 45 44
49 48 48 47 46 46 48 49 50 50 49 48 47 46 45 44 44 45 45 46 46 47 47 48 49 50 51 51 51 52 52 53 52 51 51 50 49 48 46 45 44 43
47 47 46 46 46 47 48 48 48 47 46 45 43 42 41 41 41 42 43 44 45 45 46 47 47 48 50 50 50 50 51 52 52 51 51 50 49 48 46 44 43 42
46 45 44 45 46 47 47 46 45 44 43 41 40 39 39 39 40 40 41 42 43 44 45 45 46 47 49 49 49 49 49 50 51 50 49 48 47 46 45 44 43 42
44 44 44 45 46 46 45 43 42 41 40 38 37 37 37 38 38 39 40 41 42 43 44 44 45 47 48 48 49 48 48 49 50 49 48 46 45 44 43 43 42 42
42 43 45 45 45 43 42 40 39 38 37 36 36 36 36 37 38 38 39 40 42 43 43 44 44 46 48 48 48 48 48 49 49 48 46 45 43 42 41 41 41 41
42 44 45 44 42 40 39 37 36 36 36 35 35 36 36 37 38 38 39 40 41 43 43 43 44 46 47 48 48 48 48 48 48 46 45 43 41 40 39 39 39 40
43 44 44 41 39 37 36 35 34 34 35 35 35 35 36 37 38 39 40 40 41 43 44 43 43 45 47 47 47 48 48 48 47 46 44 41 39 39 38 37 37 38
43 43 41 38 36 35 34 33 33 34 34 35 35 35 35 37 37 39 40 41 42 43 45 44 43 44 46 47 47 48 48 47 46 45 44 42 40 38 38 37 36 37
42 41 38 36 34 33 33 32 33 34 34 35 36 36 36 37 38 39 40 42 43 44 45 46 45 44 45 46 46 47 48 48 46 44 43 42 41 39 38 37 36 36
40 38 36 34 32 32 32 33 33 34 34 35 36 37 38 38 40 41 41 41 43 44 45 47 47 46 46 47 47 47 48 48 46 45 44 42 41 39 37 36 36 36
37 35 33 32 32 32 32 33 34 34 35 35 36 38 39 40 41 43 42 42 42 43 44 46 48 47 46 47 47 47 48 48 46 45 44 43 41 39 37 36 35 35
Wind_Direction
307 307 308 309 310 310 311 311 311 312 312 313 313 313 313 313 313 313 313 312 312 311 310 309 308 306 305 304 303 302 301 299 298 297 295 294 293 292 292 291 291 291
307 308 309 310 311 311 311 312 312 313 313 314 314 314 314 314 314 314 313 312 311 310 309 308 307 306 305 304 302 301 300 298 297 296 295 294 293 291 291 290 290 290
308 309 310 311 311 312 312 313 313 314 314 315 315 315 315 314 313 313 312 311 311 310 309 308 307 306 305 304 303 301 300 299 297 296 295 293 292 291 290 289 289 289
309 310 311 311 312 313 313 314 314 315 315 315 315 315 314 313 313 312 311 311 310 309 309 308 307 306 305 304 303 301 300 299 298 296 295 293 292 290 289 288 287 287
310 311 312 312 313 314 314 315 315 316 316 315 315 314 313 313 312 312 311 311 311 310 310 309 308 307 306 304 303 302 300 299 298 296 295 294 293 291 289 288 287 286
311 312 313 314 315 315 316 316 316 316 316 315 315 314 314 313 313 313 313 312 312 312 311 310 309 308 307 306 304 303 301 300 299 297 296 295 293 292 291 289 288 287
313 314 315 316 316 316 316 316 316 316 315 315 315 315 314 314 314 314 314 314 313 313 312 311 310 309 308 307 305 304 303 301 300 298 297 296 294 293 292 291 290 288
315 315 316 316 316 316 316 316 316 316 315 315 315 315 315 315 315 315 315 315 315 314 313 312 311 310 309 308 306 305 304 302 300 299 297 296 294 293 292 291 290 289
315 315 315 315 316 316 316 316 316 316 316 316 316 316 317 317 317 316 316 316 315 314 313 312 311 310 309 308 307 305 304 302 301 299 298 296 295 294 292 291 290 289
315 315 315 315 316 316 316 316 316 316 316 317 317 318 318 318 317 317 316 316 315 314 313 312 311 310 309 308 306 305 304 302 301 300 298 297 295 294 293 291 290 289
315 315 315 316 316 317 317 317 317 317 317 318 319 319 318 318 318 317 317 316 315 315 314 313 313 312 311 310 308 307 305 303 301 300 299 297 296 295 293 292 291 290
315 315 316 316 317 317 317 317 317 318 319 319 319 319 319 319 319 319 318 318 318 317 317 316 316 315 314 312 311 309 308 306 304 302 300 298 297 296 294 293 293 292
315 316 316 317 317 317 317 318 319 320 320 320 320 320 320 320 321 321 321 320 320 320 320 320 319 318 316 314 313 311 309 308 307 305 303 301 299 297 296 296 296 296
316 316 316 317 317 318 319 320 321 321 321 321 321 321 322 323 323 323 323 323 323 323 324 323 322 320 318 316 315 313 311 309 308 306 305 303 301 299 298 298 298 298
316 316 316 317 318 319 320 321 321 321 321 321 322 323 324 324 325 325 325 326 326 327 327 326 325 323 321 319 318 315 313 311 309 307 305 304 303 302 302 301 300 300
315 316 317 318 319 320 321 321 321 321 321 322 323 324 325 326 326 326 327 327 328 329 329 328 327 325 324 322 320 318 316 314 312 310 307 305 305 305 305 304 303 301
316 316 317 318 320 321 321 321 321 321 322 322 324 325 326 327 327 328 328 329 329 330 330 329 329 327 325 325 323 321 319 317 315 313 311 309 308 306 305 305 304 303
316 316 317 319 320 321 321 320 321 321 322 323 324 326 327 327 328 329 330 329 330 331 331 330 329 328 327 327 327 326 323 319 318 316 315 314 312 309 306 304 303 303
315 316 318 319 320 320 320 320 321 321 322 323 325 327 328 328 328 329 330 329 329 330 330 331 330 328 328 329 330 329 327 324 322 321 320 319 317 314 310 306 303 302
315 316 318 319 320 319 319 320 321 321 322 324 326 327 327 328 328 328 329 329 329 329 330 331 330 329 329 330 331 331 331 330 329 327 324 323 321 319 315 310 306 302
315 316 318 319 319 319 319 320 321 322 323 325 326 327 326 327 327 328 329 329 329 328 329 331 331 329 329 330 331 332 332 334 335 334 331 328 324 321 318 315 310 306
314 315 317 319 319 318 319 320 321 322 323 324 325 325 325 326 327 328 329 329 329 328 328 330 331 329 328 329 330 331 332 335 337 338 337 334 329 324 320 318 315 311
314 315 317 318 318 318 320 321 322 323 322 323 324 324 325 325 327 328 329 329 329 329 328 329 331 329 328 329 329 329 331 334 336 338 339 338 336 331 325 321 318 314
314 316 317 318 318 319 321 322 322 322 321 322 323 324 325 326 327 328 330 330 329 329 328 328 330 330 328 328 329 329 329 332 334 335 336 338 339 338 333 328 323 318
314 316 318 318 319 320 321 322 321 320 321 321 322 323 325 327 327 327 329 330 329 329 328 328 328 329 329 328 328 328 328 330 332 333 333 335 337 339 338 334 329 324
315 317 318 319 320 320 320 321 320 319 320 321 322 324 325 326 327 327 328 330 329 328 328 327 327 328 328 327 327 327 327 328 330 330 330 331 334 335 336 335 333 329
Height
3081 3078 3075 3073 3069 3066 3063 3060 3056 3053 3049 3046 3042 3038 3035 3032 3028 3025 3022 3019 3015 3012 3009 3006 3002 2999 2996 2993 2990 2987 2984 2981 2978 2975 2973 2972 2969 2965 2962 2960 2957 2955
3077 3074 3071 3068 3064 3061 3058 3054 3050 3046 3042 3038 3034 3031 3027 3023 3020 3017 3014 3011 3008 3005 3002 2999 2995 2992 2989 2986 2983 2980 2977 2974 2972 2969 2966 2964 2962 2959 2956 2953 2951 2949
3072 3069 3066 3063 3059 3056 3052 3048 3044 3040 3036 3032 3027 3024 3020 3017 3013 3010 3007 3003 3001 2998 2994 2991 2988 2985 2981 2978 2975 2973 2970 2967 2964 2962 2959 2958 2955 2952 2950 2946 2945 2942
3067 3064 3061 3057 3053 3050 3046 3042 3038 3033 3030 3026 3022 3018 3014 3010 3007 3003 3000 2997 2993 2990 2987 2984 2981 2978 2974 2971 2968 2965 2963 2960 2957 2954 2952 2950 2948 2945 2943 2940 2938 2936
3061 3058 3054 3051 3047 3043 3038 3034 3031 3027 3023 3019 3016 3012 3008 3004 3000 2997 2993 2990 2987 2983 2980 2977 2974 2971 2967 2964 2961 2958 2955 2953 2950 2947 2944 2943 2941 2938 2936 2933 2931 2929
3055 3051 3047 3043 3039 3035 3031 3027 3024 3020 3016 3013 3009 3005 3001 2997 2993 2990 2986 2983 2980 2977 2973 2970 2967 2964 2960 2957 2954 2951 2948 2945 2942 2939 2937 2935 2933 2930 2928 2925 2923 2922
3048 3044 3040 3036 3032 3028 3025 3021 3018 3014 3011 3007 3003 2999 2995 2992 2988 2984 2980 2977 2974 2970 2967 2963 2960 2957 2954 2950 2947 2945 2941 2938 2935 2932 2930 2927 2925 2923 2921 2918 2916 2914
3042 3038 3034 3030 3027 3023 3020 3016 3013 3009 3005 3001 2997 2993 2989 2986 2982 2978 2975 2971 2968 2964 2960 2957 2953 2950 2947 2943 2940 2937 2935 2932 2928 2925 2923 2920 2918 2916 2913 2910 2908 2907
3036 3033 3029 3025 3022 3019 3015 3011 3007 3003 3000 2996 2992 2989 2985 2981 2977 2973 2970 2966 2962 2958 2955 2951 2948 2944 2941 2937 2933 2930 2928 2925 2922 2919 2916 2913 2911 2908 2906 2903 2901 2899
3031 3027 3024 3021 3017 3014 3010 3006 3002 2998 2995 2991 2988 2984 2980 2976 2972 2968 2965 2961 2957 2953 2950 2946 2942 2939 2935 2931 2927 2923 2921 2918 2915 2912 2909 2906 2904 2901 2899 2896 2894 2892
3026 3022 3019 3016 3012 3009 3005 3001 2997 2993 2990 2986 2983 2979 2975 2972 2968 2964 2960 2956 2952 2948 2944 2940 2936 2933 2929 2925 2921 2917 2913 2911 2908 2905 2902 2899 2897 2894 2892 2889 2887 2886
3021 3017 3014 3010 3007 3003 3000 2996 2992 2989 2985 2981 2978 2974 2971 2967 2963 2959 2955 2951 2947 2943 2939 2935 2931 2927 2923 2919 2915 2911 2907 2904 2901 2898 2895 2892 2890 2888 2885 2883 2881 2879
3016 3012 3008 3005 3002 2998 2994 2991 2987 2984 2980 2977 2973 2969 2966 2963 2959 2955 2950 2946 2942 2938 2934 2930 2926 2922 2917 2913 2909 2905 2901 2898 2894 2891 2889 2886 2883 2881 2879 2877 2876 2874
3010 3006 3003 3000 2996 2993 2989 2986 2983 2979 2976 2972 2969 2965 2961 2958 2954 2950 2946 2942 2938 2934 2930 2926 2922 2917 2912 2908 2904 2900 2896 2892 2889 2885 2882 2880 2877 2875 2874 2872 2870 2869
3005 3001 2998 2995 2991 2988 2985 2982 2978 2975 2972 2968 2964 2961 2957 2954 2950 2946 2942 2938 2934 2931 2927 2922 2918 2913 2908 2903 2899 2894 2890 2886 2883 2880 2877 2874 2872 2870 2868 2867 2865 2863
3000 2996 2993 2990 2987 2984 2981 2978 2974 2971 2967 2964 2960 2957 2954 2950 2947 2943 2939 2935 2931 2927 2923 2919 2914 2909 2904 2900 2894 2889 2884 2880 2876 2874 2870 2868 2866 2864 2863 2861 2859 2857
2995 2992 2988 2985 2983 2980 2977 2973 2970 2967 2963 2960 2957 2954 2951 2947 2943 2940 2935 2931 2927 2924 2920 2915 2911 2906 2900 2896 2891 2886 2880 2875 2871 2867 2865 2862 2860 2858 2857 2855 2853 2851
2990 2987 2984 2982 2979 2976 2972 2969 2966 2963 2959 2957 2954 2951 2947 2944 2940 2936 2932 2928 2924 2921 2917 2912 2907 2902 2897 2893 2889 2884 2878 2872 2867 2863 2860 2857 2855 2852 2850 2848 2847 2845
2986 2983 2981 2978 2975 2972 2969 2965 2962 2959 2956 2953 2950 2947 2944 2940 2937 2933 2929 2925 2921 2918 2914 2910 2905 2899 2895 2890 2886 2881 2876 2870 2865 2860 2857 2854 2850 2848 2845 2843 2841 2839
2982 2979 2977 2974 2971 2968 2965 2962 2958 2955 2952 2949 2946 2943 2940 2937 2934 2930 2927 2922 2918 2914 2911 2907 2902 2896 2892 2887 2883 2878 2874 2868 2863 2859 2855 2851 2847 2844 2841 2838 2835 2833
2978 2975 2973 2970 2967 2964 2961 2958 2955 2952 2949 2946 2943 2940 2936 2933 2930 2926 2923 2919 2915 2911 2907 2904 2899 2893 2888 2884 2880 2875 2871 2866 2862 2857 2853 2849 2845 2841 2838 2834 2831 2828
2974 2971 2969 2966 2963 2960 2957 2955 2951 2948 2945 2942 2940 2937 2933 2930 2926 2922 2919 2916 2912 2907 2903 2901 2897 2891 2885 2881 2877 2872 2868 2864 2860 2855 2851 2847 2843 2839 2835 2832 2828 2825
2970 2967 2965 2962 2959 2956 2954 2951 2948 2945 2942 2938 2936 2934 2930 2927 2923 2920 2915 2912 2908 2904 2899 2896 2894 2889 2882 2878 2874 2869 2864 2861 2857 2853 2849 2845 2841 2837 2833 2830 2826 2822
2966 2963 2961 2958 2956 2953 2950 2947 2944 2941 2938 2935 2932 2929 2927 2923 2920 2917 2913 2908 2904 2900 2895 2891 2889 2885 2879 2874 2870 2865 2860 2857 2854 2850 2846 2842 2839 2835 2831 2827 2823 2820
2962 2960 2957 2954 2952 2949 2946 2943 2941 2938 2935 2932 2928 2925 2922 2919 2916 2912 2910 2906 2901 2897 2892 2887 2883 2881 2876 2871 2866 2862 2857 2852 2849 2846 2843 2839 2836 2833 2829 2825 2821 2817
2959 2956 2953 2950 2948 2945 2943 2940 2937 2934 2931 2928 2925 2921 2918 2915 2912 2908 2905 2903 2899 2894 2890 2885 2879 2876 2873 2868 2863 2859 2854 2849 2845 2842 2839 2836 2833 2830 2826 2823 2819 2815